{"data":{"norad_id":64580,"intl_designator":"2025-135BE","name":"YAM-10","alt_names":[],"object_type":"PAYLOAD","status":"ACTIVE","operator":null,"country":"US","launch_date":"2025-06-23","launch_site_code":"AFWTR","launch_vehicle":null,"mission":null,"orbit_class":"UNKNOWN","rcs_meters":null,"size_class":null,"mass_kg":null,"dimensions":null,"purposes":[],"wikipedia_slug":null,"has_3d_model":false,"image_url":null,"decayed_at":null,"tle_current":{"epoch":"2026-05-25T00:05:56.172768Z","epoch_age_seconds":68564,"freshness":"FRESH","line1":"1 64580U 25135BE  26145.00412237  .00001625  00000+0  16694-3 0  9998","line2":"2 64580  97.7705 259.1830 0004559  78.5395 281.6335 14.91718327 50408","mean_motion":14.91718327,"eccentricity":0.0004559,"inclination_deg":97.7705,"raan_deg":259.183,"arg_perigee_deg":78.5395,"mean_anomaly_deg":281.6335,"bstar":0.00016694,"rev_number":5040,"period_min":96.532969658956,"perigee_km":589.3994768562,"apogee_km":595.75537426943,"semimajor_km":6970.7144255628,"source":"CELESTRAK","updated_at":"2026-05-25T13:38:04.624107Z"}}}